• In Belgien
  • Länderverzeichnis
  • Für 7 Tage
  • Wassertemperatur
  • Satellitenkarten
  • Wetterkarte
  • Widgets
  • user-avatar
    Anmelden

    Stündliche Wetter Albena

    Heute, 21 August, Dienstag

    Zeit Temperatur Niederschläge Wind Luftdruck Luftfeuchtigkeit
    00:00 +19°C° 0 mm 3 m/S 745 mmHg 67%
    01:00 +19°C° 0 mm 3 m/S 745 mmHg 68%
    02:00 +19°C° 0 mm 3 m/S 745 mmHg 71%
    03:00 +18°C° 0 mm 3 m/S 745 mmHg 71%
    04:00 +18°C° 0 mm 3 m/S 745 mmHg 72%
    05:00 +18°C° 0 mm 4 m/S 745 mmHg 73%
    06:00 +20°C° 0 mm 4 m/S 746 mmHg 66%
    07:00 +22°C° 0 mm 4 m/S 746 mmHg 60%
    08:00 +23°C° 0 mm 4 m/S 746 mmHg 54%
    09:00 +26°C° 0 mm 5 m/S 746 mmHg 48%
    10:00 +28°C° 0 mm 5 m/S 746 mmHg 42%
    11:00 +30°C° 0 mm 5 m/S 746 mmHg 36%
    12:00 +30°C° 0 mm 5 m/S 746 mmHg 34%
    13:00 +32°C° 0 mm 5 m/S 746 mmHg 33%
    14:00 +32°C° 0 mm 5 m/S 746 mmHg 31%
    15:00 +32°C° 0 mm 5 m/S 746 mmHg 33%
    16:00 +30°C° 0 mm 5 m/S 746 mmHg 34%
    17:00 +30°C° 0 mm 5 m/S 746 mmHg 35%
    18:00 +27°C° 0 mm 4 m/S 746 mmHg 42%
    19:00 +25°C° 0 mm 3 m/S 746 mmHg 49%
    20:00 +23°C° 0 mm 2 m/S 746 mmHg 56%
    21:00 +21°C° 0 mm 2 m/S 746 mmHg 58%
    22:00 +22°C° 0 mm 1 m/S 746 mmHg 60%
    23:00 +21°C° 0 mm 1 m/S 746 mmHg 62%

    Morgen, 22 August, Mittwoch

    Zeit Temperatur Niederschläge Wind Luftdruck Luftfeuchtigkeit
    00:00 +21°C° 0 mm 1 m/S 746 mmHg 60%
    01:00 +21°C° 0 mm 1 m/S 746 mmHg 59%
    02:00 +20°C° 0 mm 2 m/S 746 mmHg 57%
    03:00 +20°C° 0 mm 2 m/S 746 mmHg 55%
    04:00 +20°C° 0 mm 2 m/S 746 mmHg 53%
    05:00 +20°C° 0 mm 3 m/S 746 mmHg 51%
    06:00 +21°C° 0 mm 3 m/S 747 mmHg 48%
    07:00 +24°C° 0 mm 3 m/S 747 mmHg 44%
    08:00 +26°C° 0 mm 4 m/S 747 mmHg 41%
    09:00 +28°C° 0 mm 4 m/S 747 mmHg 36%
    10:00 +30°C° 0 mm 4 m/S 748 mmHg 32%
    11:00 +33°C° 0 mm 4 m/S 748 mmHg 27%
    12:00 +33°C° 0 mm 4 m/S 748 mmHg 26%
    13:00 +34°C° 0 mm 4 m/S 747 mmHg 26%
    14:00 +34°C° 0 mm 5 m/S 747 mmHg 25%
    15:00 +33°C° 0 mm 4 m/S 747 mmHg 27%
    16:00 +33°C° 0 mm 4 m/S 747 mmHg 28%
    17:00 +32°C° 0 mm 4 m/S 747 mmHg 30%
    18:00 +29°C° 0 mm 3 m/S 747 mmHg 37%
    19:00 +26°C° 0 mm 3 m/S 747 mmHg 44%
    20:00 +24°C° 0 mm 2 m/S 747 mmHg 50%
    21:00 +24°C° 0 mm 2 m/S 747 mmHg 56%
    22:00 +22°C° 0 mm 3 m/S 747 mmHg 61%
    23:00 +22°C° 0 mm 3 m/S 747 mmHg 67%

    übermorgen, 23 August, Donnerstag

    Zeit Temperatur Niederschläge Wind Luftdruck Luftfeuchtigkeit
    00:00 +22°C° 0 mm 3 m/S 747 mmHg 70%
    01:00 +22°C° 0 mm 3 m/S 747 mmHg 73%
    02:00 +21°C° 0 mm 3 m/S 747 mmHg 77%
    03:00 +21°C° 0 mm 4 m/S 747 mmHg 79%
    04:00 +21°C° 0 mm 4 m/S 747 mmHg 82%
    05:00 +21°C° 0 mm 4 m/S 747 mmHg 84%
    06:00 +23°C° 0 mm 5 m/S 747 mmHg 77%
    07:00 +25°C° 0 mm 5 m/S 747 mmHg 70%
    08:00 +27°C° 0 mm 6 m/S 747 mmHg 62%
    09:00 +28°C° 0 mm 6 m/S 747 mmHg 56%
    10:00 +30°C° 0 mm 7 m/S 747 mmHg 49%
    11:00 +32°C° 0 mm 8 m/S 747 mmHg 43%
    12:00 +32°C° 0 mm 8 m/S 747 mmHg 42%
    13:00 +32°C° 0 mm 8 m/S 746 mmHg 42%
    14:00 +32°C° 0 mm 8 m/S 746 mmHg 42%
    15:00 +31°C° 0 mm 8 m/S 746 mmHg 45%
    16:00 +30°C° 0 mm 7 m/S 746 mmHg 47%
    17:00 +29°C° 0 mm 7 m/S 746 mmHg 50%
    18:00 +27°C° 0 mm 6 m/S 746 mmHg 58%
    19:00 +24°C° 0 mm 6 m/S 746 mmHg 67%
    20:00 +22°C° 0 mm 5 m/S 746 mmHg 75%
    21:00 +22°C° 0 mm 4 m/S 746 mmHg 79%
    22:00 +21°C° 0 mm 4 m/S 746 mmHg 84%
    23:00 +21°C° 0 mm 4 m/S 746 mmHg 88%

    24 August, Freitag

    Zeit Temperatur Niederschläge Wind Luftdruck Luftfeuchtigkeit
    00:00 +20°C° 0 mm 3 m/S 746 mmHg 89%
    01:00 +20°C° 0 mm 3 m/S 745 mmHg 89%
    02:00 +20°C° 0 mm 3 m/S 745 mmHg 90%
    03:00 +20°C° 0 mm 3 m/S 745 mmHg 90%
    04:00 +19°C° 0 mm 3 m/S 745 mmHg 91%
    05:00 +19°C° 0 mm 4 m/S 745 mmHg 91%
    06:00 +21°C° 0 mm 4 m/S 745 mmHg 84%
    07:00 +22°C° 0 mm 4 m/S 745 mmHg 77%
    08:00 +25°C° 0 mm 4 m/S 745 mmHg 70%
    09:00 +27°C° 0 mm 4 m/S 745 mmHg 63%
    10:00 +28°C° 0 mm 4 m/S 745 mmHg 56%
    11:00 +30°C° 0 mm 4 m/S 745 mmHg 48%
    12:00 +30°C° 0,1 mm 5 m/S 744 mmHg 48%
    13:00 +32°C° 0,1 mm 5 m/S 744 mmHg 47%
    14:00 +32°C° 0,1 mm 5 m/S 743 mmHg 46%
    15:00 +30°C° 0 mm 5 m/S 743 mmHg 48%
    16:00 +30°C° 0 mm 5 m/S 743 mmHg 49%
    17:00 +29°C° 0 mm 5 m/S 743 mmHg 51%
    18:00 +27°C° 0 mm 5 m/S 743 mmHg 59%
    19:00 +25°C° 0 mm 4 m/S 743 mmHg 68%
    20:00 +22°C° 0 mm 3 m/S 743 mmHg 77%
    21:00 +22°C° 0 mm 3 m/S 743 mmHg 81%
    22:00 +21°C° 0 mm 3 m/S 743 mmHg 85%
    23:00 +20°C° 0 mm 2 m/S 743 mmHg 89%

    25 August, Samstag

    Zeit Temperatur Niederschläge Wind Luftdruck Luftfeuchtigkeit
    00:00 +20°C° 0 mm 2 m/S 742 mmHg 89%
    01:00 +20°C° 0 mm 2 m/S 742 mmHg 89%
    02:00 +20°C° 0 mm 2 m/S 742 mmHg 89%
    03:00 +19°C° 0 mm 2 m/S 742 mmHg 89%
    04:00 +19°C° 0 mm 2 m/S 742 mmHg 89%
    05:00 +19°C° 0 mm 3 m/S 742 mmHg 89%
    06:00 +20°C° 0 mm 3 m/S 742 mmHg 81%
    07:00 +22°C° 0 mm 3 m/S 742 mmHg 73%
    08:00 +25°C° 0 mm 3 m/S 742 mmHg 65%
    09:00 +27°C° 0 mm 3 m/S 742 mmHg 57%
    10:00 +29°C° 0 mm 3 m/S 742 mmHg 49%
    11:00 +31°C° 0 mm 3 m/S 742 mmHg 41%
    12:00 +31°C° 0 mm 3 m/S 742 mmHg 38%
    13:00 +33°C° 0 mm 3 m/S 741 mmHg 36%
    14:00 +34°C° 0 mm 3 m/S 741 mmHg 34%
    15:00 +33°C° 0 mm 4 m/S 740 mmHg 37%
    16:00 +32°C° 0 mm 4 m/S 740 mmHg 39%
    17:00 +32°C° 0 mm 4 m/S 740 mmHg 41%
    18:00 +29°C° 0 mm 4 m/S 740 mmHg 50%
    19:00 +26°C° 0 mm 3 m/S 740 mmHg 59%
    20:00 +24°C° 0 mm 2 m/S 740 mmHg 68%
    21:00 +24°C° 0 mm 2 m/S 740 mmHg 71%
    22:00 +23°C° 0 mm 1 m/S 740 mmHg 73%
    23:00 +23°C° 0 mm 1 m/S 740 mmHg 76%

    26 August, Sonntag

    Zeit Temperatur Niederschläge Wind Luftdruck Luftfeuchtigkeit
    00:00 +22°C° 0 mm 1 m/S 740 mmHg 77%
    01:00 +22°C° 0 mm 1 m/S 740 mmHg 77%
    02:00 +22°C° 0 mm 1 m/S 740 mmHg 78%
    03:00 +22°C° 0 mm 1 m/S 740 mmHg 77%
    04:00 +21°C° 0 mm 1 m/S 740 mmHg 77%
    05:00 +21°C° 0 mm 1 m/S 740 mmHg 77%
    06:00 +23°C° 0 mm 1 m/S 740 mmHg 70%
    07:00 +25°C° 0 mm 1 m/S 740 mmHg 62%
    08:00 +27°C° 0 mm 1 m/S 740 mmHg 55%
    09:00 +28°C° 0 mm 2 m/S 740 mmHg 49%
    10:00 +30°C° 0 mm 2 m/S 740 mmHg 44%
    11:00 +31°C° 0 mm 3 m/S 740 mmHg 39%
    12:00 +33°C° 0 mm 3 m/S 740 mmHg 39%
    13:00 +33°C° 0 mm 3 m/S 739 mmHg 38%
    14:00 +34°C° 0 mm 4 m/S 739 mmHg 38%
    15:00 +33°C° 0 mm 4 m/S 739 mmHg 42%
    16:00 +32°C° 0 mm 4 m/S 739 mmHg 47%
    17:00 +30°C° 0 mm 4 m/S 738 mmHg 51%
    18:00 +28°C° 0 mm 4 m/S 738 mmHg 60%
    19:00 +26°C° 0 mm 4 m/S 738 mmHg 68%
    20:00 +24°C° 0 mm 3 m/S 738 mmHg 77%
    21:00 +24°C° 0 mm 3 m/S 738 mmHg 81%
    22:00 +24°C° 0 mm 3 m/S 738 mmHg 86%
    23:00 +22°C° 0 mm 3 m/S 738 mmHg 90%
    Mehr zeigen